Location: Treviso
(45.6669°N, 12.2430°E)
Time: 00:35:29
(UTC+02:00)

ISS - Visible Passes

Search period start: 26 May 2018 00:00
Search period end: 05 June 2018 00:00
Orbit: 402 x 407 km, 51.6° (Epoch: 26 May)

Date Brightness Start Highest point End Pass type
(mag) Time Alt. Az. Time Alt. Az. Time Alt. Az.
26 May -2.5 01:14:48 10° NW 01:17:14 39° NNW 01:17:14 39° NNW visible
26 May -1.7 22:45:45 10° WNW 22:48:39 28° N 22:51:32 10° ENE visible
27 May -2.3 00:22:36 10° NW 00:25:41 36° NNE 00:26:26 31° NE visible
27 May -1.9 21:53:17 10° WNW 21:56:16 32° N 21:59:15 10° NE visible
27 May -1.9 23:30:22 10° NW 23:33:20 30° N 23:35:43 14° ENE visible
28 May -1.9 01:06:49 10° WNW 01:08:20 25° WNW 01:08:20 25° WNW visible
28 May -1.8 22:38:03 10° WNW 22:40:56 27° N 22:43:48 10° ENE visible
29 May -3.2 00:14:38 10° WNW 00:17:41 55° N 00:17:41 55° N visible
29 May -1.7 21:45:38 10° WNW 21:48:31 27° N 21:51:23 10° ENE visible
29 May -2.6 23:22:25 10° NW 23:25:32 40° NNE 23:27:03 24° ENE visible
30 May -1.4 00:58:55 10° WNW 00:59:41 16° WNW 00:59:41 16° WNW visible
30 May -2.1 22:30:09 10° NW 22:33:09 32° N 22:36:08 10° ENE visible
31 May -3.1 00:06:35 10° WNW 00:09:06 49° WNW 00:09:06 49° WNW visible
31 May -1.9 21:37:49 10° WNW 21:40:43 28° N 21:43:37 10° ENE visible
31 May -3.6 23:14:20 10° WNW 23:17:36 65° NNE 23:18:31 41° E visible
01 Jun -2.9 22:22:05 10° NW 22:25:15 44° NNE 22:27:58 13° E visible
01 Jun -2.3 23:58:39 10° WNW 00:00:36 27° W 00:00:36 27° W visible
02 Jun -2.3 21:29:48 10° NW 21:32:50 34° NNE 21:35:52 10° E visible
02 Jun -3.8 23:06:15 10° WNW 23:09:30 65° SSW 23:10:05 51° SSE visible
03 Jun -3.8 22:13:56 10° WNW 22:17:13 76° NNE 22:19:35 17° ESE visible
03 Jun -1.5 23:51:04 10° W 23:52:13 15° WSW 23:52:13 15° WSW visible
04 Jun -2.8 22:58:18 10° WNW 23:01:13 30° SW 23:01:44 29° SSW visible
